Home   Weather   Gatineau   Past weeks

Flag for Canada Past Weather in Gatineau, Quebec, Canada — Yesterday and Last 2 Weeks

Now
45 °F

Clear.


Feels Like: 40 °F
Forecast: 39 / 61 °F
Wind: 8 mph from North

Location: Ottawa Int'L. Ont.

Current Time: Sep 25, 2016 at 3:17:33 AM

Latest Report: Sep 25, 2016 at 2:00 AM


Visibility: 15 mi

Pressure: 30.24 "Hg

Humidity: 76%

Dew Point: 37 °F

Location of GatineauLocation

Past Weather in Gatineau — Graph

°F

Gatineau Temperature Yesterday

Maximum temperature yesterday: 63 °F (at 3:00 PM)
Minimum temperature yesterday: 41 °F (at 7:00 AM)
Average temperature yesterday: 52 °F

High & Low Weather Summary for the Past Weeks

 TemperatureHumidityPressure
High81 °F (Sep 13, 2:00 PM)100% (Sep 13, 6:00 AM)30.38 "Hg (Sep 13, 6:00 AM)
Low41 °F (Sep 24, 7:00 AM)34% (Sep 20, 5:00 PM)29.63 "Hg (Sep 11, 2:00 AM)
Average62 °F75%30.08 "Hg
* Reported Sep 10 2:00 AM — Sep 25 2:00 AM, Gatineau, Weather by CustomWeather, © 2016

Note: Actual official high and low records may vary slightly from our data, if they occured in-between our weather recording intervals... More about our weather records

Advertising

Gatineau Weather History for the Previous 24 Hours

Scroll right to see more
 ConditionsComfort  
Time TempWeatherWind HumidityBarometerVisibility
2:00 AM
Sun, Sep 25
45 °FClear.8 mph76%30.24 "Hg15 mi
1:00 AM46 °FClear.9 mph71%30.24 "Hg15 mi
12:00 AM46 °FClear.10 mph71%30.24 "Hg15 mi
11:00 PM
Sat, Sep 24
48 °FClear.10 mph62%30.24 "Hg15 mi
10:00 PM48 °FClear.7 mph58%30.23 "Hg15 mi
9:00 PM52 °FClear.13 mph44%30.23 "Hg15 mi
8:00 PM54 °FPassing clouds.12 mph44%30.22 "Hg15 mi
7:00 PM57 °FPassing clouds.13 mph44%30.20 "Hg60 mi
6:00 PM59 °FPassing clouds.16 mph36%30.19 "Hg15 mi
5:00 PM61 °FScattered clouds.15 mph42%30.18 "Hg15 mi
4:00 PM63 °FScattered clouds.17 mph37%30.18 "Hg15 mi
3:00 PM63 °FPartly sunny.13 mph39%30.18 "Hg15 mi
2:00 PM59 °FPartly sunny.8 mph55%30.20 "Hg15 mi
1:00 PM59 °FPartly sunny.12 mph51%30.22 "Hg15 mi
12:00 PM61 °FScattered clouds.12 mph52%30.23 "Hg15 mi
11:00 AM57 °FPassing clouds.8 mph59%30.25 "Hg15 mi
10:00 AM54 °FSunny.6 mph77%30.25 "Hg15 mi
9:00 AM50 °FPassing clouds.6 mph88%30.25 "Hg15 mi
8:00 AM46 °FPassing clouds.3 mph93%30.25 "Hg15 mi
7:00 AM41 °FPassing clouds.5 mph93%30.22 "Hg15 mi
6:00 AM43 °FPassing clouds.5 mph93%30.21 "Hg15 mi
5:00 AM46 °FClear.6 mph82%30.21 "Hg15 mi
4:00 AM45 °FClear.6 mph87%30.21 "Hg15 mi
3:00 AM43 °FClear.7 mph100%30.20 "Hg15 mi
Weather by CustomWeather, © 2016

See weather overviewHow to use our weather pages